Hourly Data Report for July 10, 2021

BONAVISTA
NEWFOUNDLAND
Current Station Operator: ECCC - MSC

48°40'02.000" N
53°06'51.000" W
25.60 m
8400601
71178
AVA

Download Data

Hourly Data (July 2021)
Hourly Data Report for July 10, 2021
TIME
LST
Temp Definition
°C
Dew Point Definition
°C
Rel Hum Definition
%
Precip. Amount Definition
mm

Wind Dir Definition
10's deg

Wind Spd Definition
km/h
Visibility Definition
km
Stn Press Definition
kPa
Hmdx Definition


Wind Chill Definition


Weather Definition


00:30 14.8 9.7 71 0.0 20 41   101.68     LegendNANA
01:30 15.2 12.3 83 0.0 21 27   101.64     LegendNANA
02:30 15.0 13.2 89 0.0 20 32   101.59     LegendNANA
03:30 15.4 14.2 93 0.0 21 31   101.56     LegendNANA
04:30 15.1 14.2 94 0.0 19 32   101.46     LegendNANA
05:30 15.3 14.3 94 0.0 19 32   101.38     LegendNANA
06:30 16.7 15.4 92 0.0 19 33   101.30     LegendNANA
07:30 17.3 16.0 92 0.0 20 28   101.28     LegendNANA
08:30 17.7 16.4 92 0.0 19 27   101.19     LegendNANA
09:30 19.3 17.6 89 0.0 20 50   101.05     LegendNANA
10:30 20.5 18.0 86 0.0 19 44   100.92 27   LegendNANA
11:30 20.5 18.2 87 0.0 19 48   100.78 27   LegendNANA
12:30 21.8 19.3 86 0.0 19 52   100.62 29   LegendNANA
13:30 22.9 19.1 79 0.0 20 55   100.48 30   LegendNANA
14:30 22.4 19.0 81 0.0 20 55   100.35 29   LegendNANA
15:30 20.7 17.4 81 0.0 21 50   100.24 26   LegendNANA
16:30 18.7 15.3 81 0.0 22 50   100.25     LegendNANA
17:30 19.0 15.1 78 0.0 22 41   100.25     LegendNANA
18:30 15.9 13.3 85 0.0 23 38   100.34     LegendNANA
19:30 15.5 13.3 87 0.0 24 38   100.48     LegendNANA
20:30 15.4 13.0 86 0.0 25 42   100.75     LegendNANA
21:30 13.0 11.8 92 0.0 29 28   101.01     LegendNANA
22:30 12.6 11.4 93 0.0 31 32   101.09     LegendNANA
23:30 11.7 10.9 95 0.0 27 13   101.22     LegendNANA

Notes on Data Quality.

Legend

  • E = Estimated
  • M = Missing
  • NA = Not Available*
  • [empty] = Indicates an unobserved value
Date modified: